[[{"header":{"parameterUnit":"m.s-1","parameterCategory":1,"la1":30.2991,"la2":30.254,"lo1":-89.0895,"lo2":-89.0444,"dy":0.0017,"dx":0.0017,"nx":28,"ny":28,"refTime":"2024-05-06T03:00:00:Z","depth":0,"parameterNumber":2,"parameterNumberName":"U-component_of_WINDS"},"data":[0,0,0,0,0,0,0,0,0,0,0,0,0,0,0,0,0,0,0,0,0,0,0,0,0,0,0,0,0,0,0,0,0,0,0,0,0,0,0,0,0,0,0,0,0,0,0,0,0,0,0,0,0,0,0,0,0,0,-1.7145,-1.7145,0,-1.7166,-1.7166,-1.7167,-1.715,-1.7149,-1.7148,-1.7147,-1.717,-1.7171,-1.7173,0,0,0,0,0,0,0,0,0,0,0,0,0,-1.7094,-1.7095,-1.7145,-1.7145,-1.7146,-1.7166,-1.7166,-1.7167,-1.715,-1.7149,-1.7148,-1.7147,-1.717,-1.7171,-1.7173,0,0,0,0,0,0,0,0,0,0,0,0,0,-1.7115,-1.7095,-1.7145,-1.714,-1.7139,-1.7166,-1.7166,-1.7167,-1.715,-1.7149,-1.7148,-1.7147,-1.7169,-1.7171,-1.7173,-1.7206,0,0,-1.7179,-1.718,0,0,0,0,0,0,0,0,-1.7114,-1.7117,-1.714,-1.714,-1.714,-1.7154,-1.7156,-1.718,-1.715,-1.7146,-1.7147,-1.7146,-1.7166,-1.7168,-1.7174,-1.7207,-1.7208,-1.7179,-1.718,-1.7181,-1.7181,0,0,0,0,0,0,0,-1.7113,-1.7116,-1.7153,-1.7141,-1.714,-1.7137,-1.7139,-1.7161,-1.7162,-1.7146,-1.7145,-1.7148,-1.7165,-1.7172,-1.7175,-1.7209,-1.7179,-1.7181,-1.7182,-1.7182,-1.7272,-1.7273,0,0,0,0,0,0,-1.7111,-1.7115,-1.7153,-1.7154,-1.7124,-1.7139,-1.7141,-1.7151,-1.7161,-1.7162,-1.7149,-1.7147,-1.717,-1.7172,-1.7175,-1.7216,-1.7181,-1.7183,-1.7184,-1.7271,-1.7272,-1.7274,0,0,0,0,0,0,-1.711,-1.7115,-1.7152,-1.7134,-1.7139,-1.7141,-1.7152,-1.7152,-1.7158,-1.7163,-1.7163,-1.7155,-1.7169,-1.7173,-1.7199,-1.7216,-1.7184,-1.7185,-1.7269,-1.7271,-1.7273,-1.7296,0,0,0,0,0,0,-1.7109,-1.7115,-1.7126,-1.7135,-1.714,-1.7174,-1.7153,-1.7153,-1.7162,-1.716,-1.717,-1.717,-1.7168,-1.7196,-1.7201,-1.7218,-1.7187,-1.7268,-1.727,-1.7272,-1.7294,-1.7299,-1.7303,0,0,0,0,0,-1.7107,-1.7132,-1.7127,-1.7132,-1.7155,-1.7175,-1.7178,-1.7175,-1.7163,-1.7176,-1.7179,-1.717,-1.7214,-1.7199,-1.7204,-1.7222,-1.7267,-1.7269,-1.7272,-1.7292,-1.7298,-1.7303,0,0,0,0,0,0,-1.7126,-1.7133,-1.7128,-1.7156,-1.7165,-1.7173,-1.7188,-1.7182,-1.7195,-1.7192,-1.7189,-1.7191,-1.7219,-1.7223,-1.7207,-1.7256,-1.7238,-1.7242,-1.7252,-1.7257,-1.7262,-1.726,-1.7188,0,0,0,0,0,-1.7134,-1.7149,-1.7155,-1.718,-1.7185,-1.7186,-1.7195,-1.7192,-1.7201,-1.7205,-1.721,-1.7221,-1.7237,-1.7247,-1.7263,-1.7295,-1.7298,-1.731,-1.7315,-1.7318,-1.7322,-1.734,-1.7346,-1.7283,-1.7283,-1.7283,0,0,-1.7149,-1.7155,-1.7165,-1.7184,-1.719,-1.7208,-1.7189,-1.7208,-1.7221,-1.7208,-1.7233,-1.7238,-1.7249,-1.7279,-1.7292,-1.7284,-1.734,-1.7322,-1.7325,-1.7326,-1.7344,-1.735,-1.7355,-1.7285,-1.7284,-1.7284,0,0,-1.7187,-1.7192,-1.7214,-1.7221,-1.7232,-1.7233,-1.7238,-1.7247,-1.7249,-1.7274,-1.7266,-1.7282,-1.731,-1.7318,-1.7326,-1.7369,-1.7362,-1.7374,-1.7397,-1.7415,-1.742,-1.7425,-1.7441,-1.7446,-1.7378,-1.7378,-1.7378,0,-1.7205,-1.7229,-1.7226,-1.7245,-1.7254,-1.7244,-1.7267,-1.7274,-1.729,-1.7296,-1.7286,-1.7322,-1.7329,-1.7361,-1.7372,-1.7378,-1.7385,-1.7373,-1.742,-1.7424,-1.7428,-1.7443,-1.7449,-1.7379,-1.7379,-1.7379,-1.7379,0,-1.7252,-1.7269,-1.7285,-1.73,-1.7311,-1.7332,-1.7333,-1.7345,-1.7341,-1.7344,-1.737,-1.7379,-1.7396,-1.7403,-1.74,-1.7436,-1.743,-1.742,-1.7402,-1.7436,-1.745,-1.7456,-1.7381,-1.7381,-1.738,-1.738,0,0,-1.73,-1.7314,-1.732,-1.7327,-1.7339,-1.7353,-1.7374,-1.7391,-1.7401,-1.7413,-1.7431,-1.7456,-1.7447,-1.7456,-1.7454,-1.7471,-1.7505,-1.7459,-1.7459,-1.7467,-1.7545,-1.7553,-1.7559,-1.75,-1.7501,-1.7502,-1.7545,0,-1.7338,-1.7374,-1.7372,-1.7407,-1.7424,-1.7415,-1.7434,-1.7444,-1.7447,-1.7463,-1.7467,-1.7484,-1.7471,-1.7477,-1.7493,-1.7497,-1.752,-1.7494,-1.7518,-1.7519,-1.7515,-1.7567,-1.7574,-1.7613,-1.755,-1.7551,-1.7552,0,-1.7387,-1.74,-1.7436,-1.7446,-1.7453,-1.747,-1.7486,-1.7501,-1.7512,-1.7514,-1.7525,-1.7521,-1.7544,-1.7526,-1.7558,-1.754,-1.755,-1.7554,-1.7556,-1.7557,-1.7537,-1.757,-1.7626,-1.7632,-1.756,-1.7559,-1.7559,0,-1.7419,-1.7446,-1.7471,-1.7477,-1.749,-1.7502,-1.7508,-1.7519,-1.753,-1.7544,-1.7551,-1.7568,-1.7577,-1.7591,-1.7592,-1.7579,-1.7625,-1.7606,-1.7627,-1.7627,-1.7636,-1.7636,-1.7695,-1.7643,-1.7643,-1.7643,-1.7643,0,-1.7462,-1.7484,-1.7486,-1.7501,-1.7527,-1.7525,-1.7551,-1.7556,-1.7566,-1.7583,-1.7577,-1.7593,-1.7594,-1.7611,-1.7612,-1.7639,-1.7643,-1.7646,-1.7646,-1.7646,-1.7646,-1.7652,-1.7649,-1.7645,-1.7644,-1.7644,-1.7644,0,-1.7502,-1.7504,-1.7531,-1.7541,-1.7544,-1.7562,-1.7571,-1.7587,-1.759,-1.7612,-1.7617,-1.7622,-1.7643,-1.7645,-1.7669,-1.767,-1.7702,-1.7699,-1.7698,-1.7697,-1.7718,-1.7716,-1.7783,-1.7792,-1.7734,-1.7735,-1.7735,0,-1.7529,-1.7546,-1.7558,-1.7569,-1.7575,-1.7593,-1.7604,-1.7604,-1.7615,-1.7631,-1.7645,-1.7664,-1.768,-1.7712,-1.7719,-1.7737,-1.7735,-1.7757,-1.7737,-1.7738,-1.7735,-1.7734,-1.7737,-1.7761,-1.7761,-1.7762,-1.7762,0,-1.7576,-1.7577,-1.7592,-1.7609,-1.7622,-1.7635,-1.7647,-1.7656,-1.7658,-1.7672,-1.7692,-1.7704,-1.7729,-1.7748,-1.7767,-1.7774,-1.7769,-1.7769,-1.7774,-1.7775,-1.7773,-1.7775,-1.7708,-1.7767,-1.7766,-1.7766,-1.7766,-1.7766,-1.7611,-1.7626,-1.7637,-1.7655,-1.7664,-1.7676,-1.7691,-1.7697,-1.7714,-1.7733,-1.7732,-1.7755,-1.7768,-1.7792,-1.7801,-1.7819,-1.7812,-1.782,-1.7822,-1.7824,-1.7826,-1.7771,-1.7822,-1.7822,-1.7822,-1.7822,-1.7822,0,-1.7659,-1.7666,-1.7682,-1.77,-1.7714,-1.7708,-1.7721,-1.7734,-1.7754,-1.7766,-1.7782,-1.7806,-1.7825,-1.7834,-1.7853,-1.7866,-1.7865,-1.7871,-1.787,-1.7872,-1.7831,-1.7824,-1.7873,-1.7873,-1.7873,-1.7873,-1.7872,-1.7872,-1.7686,-1.7711,-1.7713,-1.7744,-1.7751,-1.7773,-1.7781,-1.7792,-1.7802,-1.7829,-1.7845,-1.785,-1.7862,-1.7882,-1.79,-1.7902,-1.791,-1.7918,-1.7919,-1.788,-1.7875,-1.787,-1.7864,-1.7919,-1.7919,-1.7958,-1.7959,-1.7959]},{"header":{"parameterUnit":"m.s-1","parameterCategory":1,"la1":30.2991,"la2":30.254,"lo1":-89.0895,"lo2":-89.0444,"dy":0.0017,"dx":0.0017,"nx":28,"ny":28,"refTime":"2024-05-06T03:00:00:Z","depth":0,"parameterNumber":3,"parameterNumberName":"V-component_of_WINDS"},"data":[0,0,0,0,0,0,0,0,0,0,0,0,0,0,0,0,0,0,0,0,0,0,0,0,0,0,0,0,0,0,0,0,0,0,0,0,0,0,0,0,0,0,0,0,0,0,0,0,0,0,0,0,0,0,0,0,0,0,4.274,4.274,0,4.2787,4.2787,4.2788,4.2787,4.2787,4.2786,4.2786,4.2831,4.2832,4.2834,0,0,0,0,0,0,0,0,0,0,0,0,0,4.2648,4.265,4.274,4.274,4.2741,4.2787,4.2787,4.2788,4.2788,4.2787,4.2786,4.2785,4.283,4.2832,4.2834,0,0,0,0,0,0,0,0,0,0,0,0,0,4.269,4.265,4.274,4.2746,4.2747,4.2787,4.2787,4.2788,4.2788,4.2787,4.2786,4.2785,4.2829,4.2832,4.2835,4.2869,0,0,4.2843,4.2844,0,0,0,0,0,0,0,0,4.2688,4.2694,4.2745,4.2746,4.2747,4.278,4.2771,4.2815,4.2788,4.2772,4.2786,4.2785,4.2814,4.2818,4.2829,4.2871,4.2873,4.2843,4.2845,4.2846,4.2846,0,0,0,0,0,0,0,4.2685,4.2692,4.2758,4.2745,4.2747,4.2746,4.2751,4.278,4.2798,4.2774,4.2774,4.2779,4.2815,4.2826,4.283,4.2874,4.2843,4.2845,4.2847,4.2848,4.2949,4.295,0,0,0,0,0,0,4.2681,4.2689,4.2757,4.276,4.2715,4.2749,4.2754,4.2771,4.2798,4.2801,4.278,4.2779,4.2822,4.2827,4.2832,4.2876,4.2846,4.2848,4.285,4.2948,4.2949,4.2951,0,0,0,0,0,0,4.2679,4.2687,4.2755,4.2725,4.2733,4.2751,4.2769,4.2772,4.2784,4.2803,4.2806,4.2789,4.2822,4.2828,4.2861,4.2877,4.2849,4.2852,4.2947,4.2949,4.295,4.2963,0,0,0,0,0,0,4.2677,4.2686,4.27,4.2725,4.2735,4.2783,4.277,4.2774,4.2789,4.2788,4.2811,4.2814,4.2822,4.2857,4.2863,4.288,4.2854,4.2945,4.2948,4.295,4.2961,4.2965,4.2968,0,0,0,0,0,4.2673,4.2701,4.2701,4.2709,4.2752,4.2784,4.279,4.2799,4.279,4.2804,4.2816,4.2814,4.2874,4.286,4.2867,4.2885,4.2944,4.2947,4.2949,4.296,4.2964,4.2968,0,0,0,0,0,0,4.2675,4.2704,4.2704,4.2741,4.276,4.2784,4.2802,4.2803,4.2824,4.2823,4.2831,4.2837,4.287,4.2881,4.2864,4.2922,4.2908,4.2912,4.2913,4.2918,4.2921,4.2918,4.2856,0,0,0,0,0,4.268,4.2705,4.2728,4.2758,4.2768,4.2783,4.2797,4.2803,4.2823,4.2831,4.2846,4.2865,4.2888,4.2903,4.2926,4.2963,4.2968,4.2979,4.2982,4.2985,4.2989,4.3011,4.3016,4.2959,4.2959,4.2959,0,0,4.269,4.2709,4.2723,4.2759,4.2775,4.28,4.279,4.2816,4.2835,4.2834,4.2867,4.2879,4.2901,4.2936,4.2952,4.2946,4.3006,4.2988,4.299,4.2992,4.3014,4.3019,4.3024,4.2961,4.296,4.296,0,0,4.2722,4.2738,4.2765,4.2782,4.2807,4.2818,4.2824,4.2849,4.2857,4.289,4.2891,4.2913,4.2953,4.2969,4.2982,4.3022,4.3021,4.3029,4.3047,4.3069,4.3073,4.3077,4.3093,4.3099,4.3033,4.3033,4.3033,0,4.2731,4.2769,4.2779,4.2807,4.2823,4.2825,4.2853,4.2869,4.2899,4.291,4.2903,4.2955,4.2969,4.3009,4.302,4.303,4.3038,4.3027,4.3072,4.3076,4.308,4.3095,4.3101,4.3034,4.3033,4.3033,4.3033,0,4.278,4.2807,4.2826,4.2858,4.2876,4.2903,4.2917,4.2934,4.2938,4.2949,4.2984,4.3002,4.3029,4.3039,4.3042,4.308,4.3076,4.307,4.3057,4.3086,4.3101,4.3107,4.3035,4.3035,4.3034,4.3034,0,0,4.2813,4.2852,4.2859,4.2874,4.2902,4.2923,4.2951,4.2979,4.2994,4.3015,4.304,4.3074,4.307,4.3086,4.3091,4.3109,4.3142,4.3102,4.3102,4.311,4.3187,4.3192,4.3199,4.3142,4.3143,4.3144,4.3186,0,4.2849,4.29,4.2911,4.2955,4.2981,4.2984,4.3009,4.3029,4.304,4.3063,4.3075,4.3101,4.3092,4.3102,4.3121,4.3134,4.3158,4.3131,4.3165,4.3166,4.316,4.3206,4.3211,4.325,4.3191,4.3192,4.3193,0,4.2897,4.2922,4.2969,4.2996,4.3007,4.3029,4.3057,4.3079,4.3102,4.3109,4.3128,4.3132,4.3161,4.3146,4.3188,4.3169,4.3184,4.3193,4.3194,4.3198,4.3182,4.3213,4.3262,4.3269,4.3202,4.3201,4.32,0,4.2919,4.2963,4.2998,4.3011,4.3043,4.3059,4.3072,4.3095,4.3112,4.3136,4.3147,4.3173,4.3188,4.3208,4.3219,4.3207,4.3261,4.3246,4.3268,4.3268,4.3279,4.3279,4.3333,4.3287,4.3286,4.3286,4.3286,0,4.2958,4.2987,4.3009,4.303,4.3063,4.3075,4.3107,4.3121,4.3141,4.3165,4.3169,4.3191,4.3204,4.3229,4.3237,4.3271,4.3277,4.3284,4.3286,4.3285,4.3284,4.3295,4.3293,4.3288,4.3288,4.3287,4.3287,0,4.2988,4.3003,4.3042,4.307,4.3078,4.3101,4.3125,4.3146,4.3158,4.3189,4.3196,4.3215,4.3244,4.3257,4.3292,4.3298,4.3338,4.3337,4.333,4.3331,4.3353,4.3351,4.3417,4.3427,4.3373,4.3373,4.3373,0,4.3012,4.3035,4.3067,4.3084,4.3099,4.3126,4.3144,4.3157,4.3175,4.3205,4.3223,4.3252,4.3277,4.3323,4.3339,4.3367,4.3368,4.3389,4.3372,4.337,4.337,4.3369,4.3372,4.3392,4.3393,4.3393,4.3394,0,4.3055,4.3062,4.3089,4.3119,4.314,4.3164,4.3187,4.3201,4.3217,4.3238,4.3269,4.3288,4.3325,4.3355,4.3384,4.3397,4.3399,4.3399,4.3406,4.3405,4.3401,4.3405,4.334,4.3398,4.3397,4.3397,4.3397,4.3397,4.3084,4.3106,4.3132,4.3162,4.3181,4.3203,4.3225,4.3241,4.3267,4.3299,4.3305,4.3338,4.3362,4.3401,4.3416,4.3442,4.3437,4.3446,4.3449,4.3452,4.3454,4.3396,4.3447,4.3447,4.3447,4.3447,4.3447,0,4.3128,4.3146,4.3173,4.3207,4.3231,4.3231,4.3257,4.3277,4.3306,4.3329,4.3354,4.339,4.3419,4.3439,4.3468,4.3486,4.3487,4.3493,4.3493,4.3496,4.3456,4.3448,4.3492,4.3492,4.3492,4.3492,4.3492,4.3492,4.3154,4.3192,4.3202,4.3249,4.3266,4.33,4.3315,4.3335,4.3354,4.3395,4.342,4.3433,4.3455,4.3486,4.3513,4.3518,4.353,4.3536,4.3541,4.3503,4.3499,4.3494,4.3487,4.3538,4.3538,4.358,4.358,4.358]}]]